Custer, SD

5:23 PM MDT on July 25, 2017 (GMT -0600)
Custer County

Weather History for KCUT - November, 2013

Change the Weather History Date:

Wednesday, November 6, 2013

  Actual Average Record
Temperature  
Mean Temperature 25 °F 36 °F  
Max Temperature 37 °F 47 °F 76 °F (1975)
Min Temperature 12 °F 25 °F -10 °F (1959)
Degree Days  
Heating Degree Days 40 29  
Month to date heating degree days 206 169  
Since 1 July heating degree days 1334 1348  
Cooling Degree Days 0 0  
Month to date cooling degree days 0 0  
Year to date cooling degree days 187 177  
Moisture  
Dew Point 19 °F    
Average Humidity 71    
Maximum Humidity 88    
Minimum Humidity 53    
Precipitation  
Precipitation 0.01 in 0.02 in 0.33 in (1953)
Month to date precipitation 0.40 0.14  
Year to date precipitation 21.21 18.10  
Sea Level Pressure  
Sea Level Pressure 30.20 in    
Wind  
Wind Speed 7 mph (WNW)    
Max Wind Speed 23 mph    
Max Gust Speed 32 mph    
Visibility 9 miles    
Events Fog , Snow    
T = Trace of Precipitation, MM = Missing Value Source: NWS Daily Summary

Daily Weather History Graph

Daily Weather History Graph

Search for Another Location

Airport or City:

Trip Planner

Search our weather history database for the weather conditions in past years. The results will help you decide how hot, cold, wet, or windy it might be!

Date:

Astronomy

Nov. 06, 2013 Rise Set
Actual Time 6:37 AM MST 4:38 PM MST
Civil Twilight 6:07 AM MST 5:08 PM MST
Nautical Twilight 5:32 AM MST 5:42 PM MST
Astronomical Twilight 4:59 AM MST 6:16 PM MST
Moon 9:57 AM MST (11/6) 7:42 PM MST (11/6)
Length of Visible Light 11h 01m
Length of Day
10h 00m
Waxing Crescent, 14% of the Moon is Illuminated
Nov 6
Waxing Crescent
Nov 9
First Quarter
Nov 17
Full
Nov 25
Last Quarter
Dec 2
New

Hourly Weather History & Observations

Time (MST) Temp. Windchill Dew Point Humidity Pressure Visibility Wind Dir Wind Speed Gust Speed Precip Events Conditions
12:53 AM 14.0 °F 3.9 °F 10.9 °F 88% 30.18 in 10.0 mi WNW 6.9 mph - N/A   Clear
1:53 AM 16.0 °F 8.8 °F 12.0 °F 84% 30.17 in 10.0 mi NW 4.6 mph - N/A   Clear
2:53 AM 17.1 °F - 10.9 °F 77% 30.16 in 10.0 mi Calm Calm - N/A   Clear
3:53 AM 19.0 °F 12.3 °F 10.9 °F 71% 30.16 in 10.0 mi WNW 4.6 mph - N/A   Clear
4:53 AM 21.9 °F - 10.0 °F 60% 30.16 in 10.0 mi Calm Calm - N/A   Mostly Cloudy
5:53 AM 21.9 °F 14.5 °F 10.9 °F 63% 30.17 in 10.0 mi West 5.8 mph - N/A   Partly Cloudy
6:53 AM 24.1 °F 15.2 °F 12.0 °F 60% 30.16 in 10.0 mi West 8.1 mph - N/A   Clear
7:53 AM 24.1 °F - 12.0 °F 60% 30.20 in 10.0 mi Calm Calm - N/A   Clear
8:53 AM 30.9 °F 23.5 °F 15.1 °F 52% 30.20 in 10.0 mi WNW 8.1 mph - N/A   Partly Cloudy
9:53 AM 33.1 °F 23.0 °F 19.0 °F 56% 30.21 in 10.0 mi WNW 15.0 mph 20.7 mph 0.01 in   Partly Cloudy
10:53 AM 34.0 °F 24.6 °F 21.0 °F 59% 30.20 in 10.0 mi West 13.8 mph 20.7 mph N/A   Clear
11:53 AM 36.0 °F 26.7 °F 24.1 °F 62% 30.18 in 10.0 mi WNW 15.0 mph 24.2 mph N/A   Mostly Cloudy
12:07 PM 35.6 °F 26.2 °F 24.8 °F 65% 30.07 in 10.0 mi WNW 15.0 mph 19.6 mph N/A   Overcast
12:53 PM 35.1 °F 27.4 °F 23.0 °F 61% 30.20 in 10.0 mi West 10.4 mph 18.4 mph N/A   Mostly Cloudy
1:53 PM 36.0 °F 28.0 °F 23.0 °F 59% 30.21 in 10.0 mi WNW 11.5 mph 25.3 mph N/A   Partly Cloudy
2:53 PM 36.0 °F 29.6 °F 21.9 °F 57% 30.20 in 10.0 mi WNW 8.1 mph 20.7 mph N/A   Clear
3:20 PM 33.8 °F 23.5 °F 24.8 °F 70% 30.12 in 1.2 mi WNW 16.1 mph 29.9 mph 0.00 in Snow Light Snow
3:26 PM 30.2 °F 22.6 °F 26.6 °F 86% 30.12 in 0.5 mi NW 8.1 mph 29.9 mph 0.00 in Fog , Snow Snow
3:40 PM 30.2 °F - 28.4 °F 93% 30.12 in 2.5 mi Calm Calm - 0.00 in Snow Light Snow
3:43 PM 30.2 °F 26.7 °F 26.6 °F 86% 30.12 in 5.0 mi NW 3.5 mph - 0.00 in Snow Light Snow
3:53 PM 30.9 °F 26.2 °F 27.0 °F 85% 30.25 in 10.0 mi WSW 4.6 mph - 0.00 in   Mostly Cloudy
4:01 PM 30.2 °F 24.3 °F 26.6 °F 86% 30.12 in 10.0 mi WSW 5.8 mph - N/A   Scattered Clouds
4:53 PM 32.0 °F 22.5 °F 21.9 °F 66% 30.25 in 10.0 mi WNW 12.7 mph - 0.00 in   Mostly Cloudy
5:53 PM 30.0 °F 25.2 °F 23.0 °F 75% 30.28 in 10.0 mi NNW 4.6 mph - N/A   Clear
6:53 PM 28.9 °F 25.2 °F 21.0 °F 72% 30.29 in 10.0 mi NNW 3.5 mph - N/A   Clear
7:53 PM 28.9 °F 21.9 °F 21.0 °F 72% 30.31 in 10.0 mi Variable 6.9 mph - N/A   Clear
8:53 PM 28.9 °F 21.9 °F 19.0 °F 67% 30.30 in 10.0 mi NW 6.9 mph - N/A   Clear
9:53 PM 27.0 °F 20.5 °F 16.0 °F 63% 30.34 in 10.0 mi Variable 5.8 mph - N/A   Clear
10:53 PM 28.0 °F 21.7 °F 15.1 °F 58% 30.33 in 10.0 mi NW 5.8 mph - N/A   Partly Cloudy
11:53 PM 24.1 °F - 15.1 °F 69% 30.35 in 10.0 mi Calm Calm - N/A   Scattered Clouds